This demonstration page uses our WeatherBlox Daily Observations layout. Learn more.

Left ArrowRight Arrow

Hourly Observations for September 6, 2017

Temp ( °F °C ) Dew Point ( °F °C ) Humidity (%) Winds ( mph kmh ) Pressure ( in mb ) Visibility ( mi km ) Precip ( " mm )
12:15 am 00:15 Cloudy with Drizzle 68 20 68 20 100 100 Calm 29.83 1010 5 8 0.00 0.00
12:35 am 00:35 Cloudy with Light Rain 68 20 68 20 100 100 Calm 29.83 1010 5 8 0.00 0.00
12:55 am 00:55 Cloudy with Light Rain 68 20 68 20 100 100 Calm 29.85 1011 4 6 0.01 0.25
1:15 am 01:15 Cloudy 68 20 68 20 100 100 Calm 29.85 1011 5 8 0.01 0.25
1:35 am 01:35 Cloudy with Rain 68 20 68 20 100 100 Calm 29.85 1011 3 5 0.08 2.03
1:55 am 01:55 Cloudy with Rain 68 20 68 20 100 100 Calm 29.85 1011 3 4 0.14 3.56
2:15 am 02:15 Cloudy with Light Rain 68 20 68 20 100 100 Calm 29.85 1011 3 5 0.06 1.52
2:35 am 02:35 Cloudy with Light Rain 68 20 68 20 100 100 Calm 29.85 1011 3 5 0.13 3.30
2:55 am 02:55 Cloudy with Light Rain 68 20 68 20 100 100 NW 5 7 29.83 1010 7 11 0.14 3.56
3:15 am 03:15 Cloudy 68 20 68 20 100 100 NW 3 6 29.83 1010 7 11 0.00 0.00
3:35 am 03:35 Cloudy 68 20 68 20 100 100 N 3 6 29.85 1011 10 16 0.00 0.00
3:55 am 03:55 Cloudy with Nearby Thunderstorms 68 20 68 20 100 100 N 3 6 29.85 1011 10 16 0.00 0.00
4:15 am 04:15 Cloudy 68 20 66 19 94 94 N 5 7 29.83 1010 10 16 0.00 0.00
4:35 am 04:35 Cloudy 64 18 63 17 94 94 N 10 17 29.83 1010 10 16 0.00 0.00
4:55 am 04:55 Cloudy 64 18 63 17 94 94 N 9 15 29.83 1010 10 16 0.00 0.00
5:15 am 05:15 Cloudy 64 18 63 17 94 94 NNW 7 11 29.83 1010 10 16 0.00 0.00
5:35 am 05:35 Cloudy 63 17 61 16 94 94 N 9 15 29.85 1011 10 16 0.00 0.00
5:55 am 05:55 Cloudy 63 17 61 16 94 94 N 9 15 29.85 1011 10 16 0.00 0.00
6:15 am 06:15 Cloudy 64 18 61 16 88 88 N 7 11 29.85 1011 10 16 0.00 0.00
6:35 am 06:35 Cloudy 63 17 61 16 94 94 N 8 13 29.88 1012 10 16 0.00 0.00
6:55 am 06:55 Cloudy 63 17 61 16 94 94 N 7 11 29.88 1012 10 16 0.00 0.00
7:15 am 07:15 Cloudy 63 17 61 16 94 94 NNE 5 7 29.88 1012 10 16 0.00 0.00
7:35 am 07:35 Cloudy 63 17 61 16 94 94 N 3 6 29.88 1012 10 16 0.00 0.00
7:55 am 07:55 Cloudy with Light Rain 63 17 61 16 94 94 NNE 3 6 29.91 1013 10 16 0.00 0.00
8:15 am 08:15 Cloudy 63 17 63 17 100 100 N 3 6 29.91 1013 10 16 0.00 0.00
8:35 am 08:35 Cloudy 63 17 61 16 94 94 N 8 13 29.88 1012 10 16 0.00 0.00
8:55 am 08:55 Cloudy with Light Rain 63 17 61 16 94 94 N 8 13 29.88 1012 10 16 0.00 0.00
9:15 am 09:15 Cloudy with Drizzle 63 17 61 16 94 94 NNE 6 9 29.88 1012 10 16 0.00 0.00
9:35 am 09:35 Cloudy 63 17 61 16 94 94 NNW 5 7 29.91 1013 10 16 0.00 0.00
9:55 am 09:55 Cloudy with Rain 63 17 61 16 94 94 NW 12 19 29.94 1014 10 16 0.00 0.00
10:15 am 10:15 Cloudy with Light Rain 63 17 61 16 94 94 N 7 11 29.91 1013 10 16 0.00 0.00
10:35 am 10:35 Cloudy with Rain 61 16 61 16 100 100 N 7 11 29.94 1014 5 8 0.03 0.76
10:55 am 10:55 Cloudy with Light Rain 61 16 61 16 100 100 NW 8 13 29.94 1014 7 11 0.05 1.27
11:15 am 11:15 Cloudy with Rain 61 16 61 16 100 100 N 3 6 29.94 1014 5 8 0.04 1.02
11:35 am 11:35 Cloudy with Heavy Rain 61 16 61 16 100 100 WNW 6 9 29.97 1015 4 6 0.10 2.54
11:55 am 11:55 Cloudy with Rain 61 16 61 16 100 100 NNW 3 6 29.97 1015 5 8 0.16 4.06
12:15 pm 12:15 Cloudy with Rain 61 16 61 16 100 100 N 5 7 29.94 1014 5 8 0.03 0.76
12:35 pm 12:35 Cloudy with Rain 61 16 61 16 100 100 NNE 3 6 29.94 1014 5 8 0.06 1.52
12:55 pm 12:55 Cloudy with Rain 63 17 63 17 100 100 Calm 29.94 1014 7 11 0.07 1.78
1:15 pm 13:15 Cloudy with Rain 63 17 63 17 100 100 Calm 29.94 1014 5 8 0.02 0.51
1:35 pm 13:35 Cloudy with Rain 61 16 61 16 100 100 Calm 29.94 1014 3 5 0.07 1.78
1:55 pm 13:55 Cloudy with Light Rain 63 17 61 16 94 94 Calm 29.94 1014 7 11 0.09 2.29
2:15 pm 14:15 Cloudy with Drizzle 63 17 63 17 100 100 Calm 29.94 1014 10 16 0.00 0.00
2:35 pm 14:35 Cloudy with Light Rain 63 17 63 17 100 100 Calm 29.94 1014 10 16 0.01 0.25
2:55 pm 14:55 Cloudy with Rain 63 17 63 17 100 100 WNW 3 6 29.94 1014 7 11 0.02 0.51
3:15 pm 15:15 Cloudy with Rain 63 17 63 17 100 100 Calm 29.94 1014 7 11 0.02 0.51
3:35 pm 15:35 Cloudy with Light Rain 63 17 63 17 100 100 ENE 5 7 29.91 1013 7 11 0.03 0.76
3:55 pm 15:55 Cloudy with Light Rain 63 17 63 17 100 100 NE 6 9 29.91 1013 10 16 0.03 0.76
4:15 pm 16:15 Cloudy with Light Rain 63 17 63 17 100 100 ENE 3 6 29.91 1013 10 16 0.00 0.00
4:35 pm 16:35 Cloudy with Drizzle 63 17 63 17 100 100 ESE 5 7 29.91 1013 10 16 0.00 0.00
4:55 pm 16:55 Cloudy with Rain 63 17 63 17 100 100 N 5 7 29.94 1014 10 16 0.01 0.25
5:15 pm 17:15 Cloudy with Rain 63 17 63 17 100 100 Calm 29.94 1014 5 8 0.02 0.51
5:35 pm 17:35 Cloudy with Light Rain 63 17 63 17 100 100 NE 3 6 29.91 1013 7 11 0.03 0.76
5:55 pm 17:55 Cloudy with Light Rain 63 17 63 17 100 100 Calm 29.91 1013 7 11 0.05 1.27
6:15 pm 18:15 Cloudy with Light Rain 63 17 63 17 100 100 Calm 29.91 1013 7 11 0.00 0.00
6:35 pm 18:35 Cloudy with Light Rain 63 17 63 17 100 100 Calm 29.91 1013 7 11 0.01 0.25
6:55 pm 18:55 Cloudy with Light Rain 63 17 63 17 100 100 ENE 5 7 29.91 1013 7 11 0.02 0.51
7:15 pm 19:15 Cloudy with Light Rain 61 16 61 16 100 100 E 6 9 29.88 1012 7 11 0.01 0.25
7:35 pm 19:35 Cloudy with Light Rain 61 16 61 16 100 100 Calm 29.91 1013 7 11 0.01 0.25
7:55 pm 19:55 Cloudy with Light Rain 61 16 61 16 100 100 Calm 29.88 1012 10 16 0.02 0.51
8:15 pm 20:15 Cloudy with Light Rain 61 16 61 16 100 100 Calm 29.91 1013 10 16 0.01 0.25
8:35 pm 20:35 Cloudy with Light Rain 61 16 61 16 100 100 Calm 29.94 1014 10 16 0.01 0.25
8:55 pm 20:55 Cloudy with Light Rain 61 16 61 16 100 100 Calm 29.94 1014 10 16 0.02 0.51
9:15 pm 21:15 Cloudy with Light Rain 61 16 61 16 100 100 Calm 29.94 1014 10 16 0.00 0.00
9:35 pm 21:35 Cloudy with Light Rain 61 16 61 16 100 100 WNW 7 11 29.94 1014 7 11 0.01 0.25
9:55 pm 21:55 Cloudy with Light Rain 61 16 61 16 100 100 NW 3 6 29.94 1014 10 16 0.01 0.25
10:15 pm 22:15 Cloudy 61 16 61 16 100 100 Calm 29.94 1014 10 16 0.00 0.00
10:35 pm 22:35 Cloudy 61 16 61 16 100 100 Calm 29.91 1013 10 16 0.00 0.00
10:55 pm 22:55 Cloudy 61 16 61 16 100 100 Calm 29.94 1014 10 16 0.00 0.00
11:15 pm 23:15 Cloudy 61 16 61 16 100 100 NW 3 6 29.91 1013 10 16 0.00 0.00
11:35 pm 23:35 Cloudy 61 16 61 16 100 100 Calm 29.94 1014 7 11 0.00 0.00
11:55 pm 23:55 Cloudy 61 16 61 16 100 100 Calm 29.94 1014 10 16 0.00 0.00

Powered by AerisWeather